Regional Weather Roundup
Issued by NWS

Home | Current Version | Previous Version | Graphics & Text | Print | Product List | Glossary On
Versions: 1 2 3 4 5 6 7 8 9 10 11 12 13 14 15 16 17 18 19 20 21 22 23 24 25 26 27 28 29 30 31 32 33 34 35 36 37 38 39 40 41 42 43 44 45 46 47 48 49 50
925
ASUS45 KBOU 240207
RWRCO

WEATHER ROUNDUP FOR COLORADO
NATIONAL WEATHER SERVICE DENVER/BOULDER CO
800 PM MDT MON MAY 23 2016

NOTE: "FAIR" INDICATES FEW OR NO CLOUDS BELOW 12000 FEET WITH NO
SIGNIFICANT WEATHER AND/OR OBSTRUCTIONS TO VISIBILITY.

COZ001>005-013-030-031-240300-
...NORTHWEST COLORADO...

CITY           SKY/WX    TMP DP  RH WIND       PRES   REMARKS
CRAIG          MOCLDY    61  28  28 N5        29.90R
HAYDEN         FAIR      54  28  37 S6        29.92R
MEEKER         FAIR      59  35  40 CALM      29.89R
MOUNT WERNER   NOT AVBL
STEAMBOAT SPGS MOCLDY    56  29  35 CALM      29.94R
WALDEN         FAIR      50  23  34 W7        30.01R
$$

COZ006>008-011-240300-
...WEST CENTRAL VALLEYS...

CITY           SKY/WX    TMP DP  RH WIND       PRES   REMARKS
GRAND JUNCTION FAIR      67  20  16 NW9       29.81R
MONTROSE       FAIR      68  14  12 W10       29.88R
EAGLE          FAIR      63  23  22 SW6       29.92R
RIFLE          FAIR      65  25  22 W3        29.84S
DELTA          FAIR      71  13  10 SW9       29.84R
NUCLA          FAIR      64  12  13 SW6       29.92S
$$

COZ017>023-064>068-240300-
...SOUTHWEST COLORADO...

CITY           SKY/WX    TMP DP  RH WIND       PRES   REMARKS
DURANGO        FAIR      64  18  17 W7        29.93S
CORTEZ         FAIR      68  15  13 SW7       29.88S
PAGOSA SPRINGS FAIR      60  19  20 W5        30.01S
TELLURIDE      FAIR      55   8  15 SW9       30.07R
WOLF CREEK PAS FAIR      36  19  51 SW24G36   30.23S
$$

COZ009-010-012-014-032>034-037-058>063-240300-
...CENTRAL COLORADO...

CITY           SKY/WX    TMP DP  RH WIND       PRES   REMARKS
ASPEN          FAIR      51  27  39 SW5       29.96R
BUENA VISTA    FAIR      55  17  22 W8        29.97R
COPPER MTN     NOT AVBL
BERTHOUD PASS  FAIR      32  23  69 SW3       30.20R
COTTONWOOD PAS FAIR      52  12  20 SW5       30.08R
GUNNISON       FAIR      57  18  21 W7        29.99R
KREMMLING      FAIR      54  21  28 S3        29.96S
LEADVILLE      FAIR      47  14  26 W5        30.07R
MONARCH PASS   FAIR      37  18  44 W21       30.29R
SALIDA         FAIR      62  20  19 W8        30.01R
SUNLIGHT       FAIR      43  27  52 CALM      30.15R
WILKERSON PASS CLOUDY    45  14  29 SW6       30.19R
$$

COZ069>075-240300-
...SAN LUIS VALLEY/SANGRE DE CRISTO MOUNTAINS...

CITY           SKY/WX    TMP DP  RH WIND       PRES   REMARKS
ALAMOSA        FAIR      61  24  24 W8        29.97R
LA VETA PASS   FAIR      48  16  27 S10G23    30.10S
SAGUACHE       FAIR      59  21  23 W10       29.99R
$$

COZ035-036-038>040-240300-
...NORTHERN COLORADO FRONT RANGE...

CITY           SKY/WX    TMP DP  RH WIND       PRES   REMARKS
DENVER INTL AP MOCLDY    56  44  64 NE6       29.90R
DMNS CITY PARK   N/A     59  42  52 NE9G22    29.90R
AURORA         MOCLDY    57  43  61 NE8       29.90R
FRONT RANGE AP MOCLDY    55  45  67 NE5       29.90R
ERIE MUNI ARPT MOCLDY    61  43  52 E5        29.89R
BOULDER MUN AP FAIR      59  43  55 NW3       29.89S
CENTENNIAL     MOCLDY    60  40  47 N10       29.90R
BROOMFIELD     MOCLDY    59  41  51 N7        29.91
FORT COLLINS   FAIR      37  37 100 CALM      29.90R
LONGMONT       FAIR      61  43  51 NE7       29.90R
$$

COZ041-046-047-076>085-087-088-240300-
...PIKES PEAK/PALMER DIVIDE AND SOUTHERN FOOTHILLS...

CITY           SKY/WX    TMP DP  RH WIND       PRES   REMARKS
COLO. SPRINGS  FAIR      67  32  27 E5        29.89R
A. F. ACADEMY  FAIR      57  39  51 NW8       29.91R
SCHRIEVER AFB  NOT AVBL
ELLICOTT       FAIR     N/A N/A N/A SE7       29.88R
FALCON         FAIR      59  33  38 SE3       29.94R
FORT CARSON    CLEAR     65  37  34 E5        29.85R
LIMON          FAIR      60  44  55 N7        29.86R
MONUMENT HILL  FAIR      50  41  71 N5        29.97R
TRINIDAD       FAIR      67  26  21 W9        29.83R
$$

COZ042>045-048>051-090-091-240300-
...NORTHEAST COLORADO...

CITY           SKY/WX    TMP DP  RH WIND       PRES   REMARKS
GREELEY ARPT   FAIR      61  41  48 NE5       29.88S
AKRON          FAIR      57  46  66 NE10      29.87R
BURLINGTON     FAIR      63  48  58 E9        29.83R
WRAY           FAIR      57  50  77 NE6       29.85F
STERLING       CLOUDY    57  43  58 NE9       29.88R
HOLYOKE        FAIR      63  43  48 N6        29.88R
FORT MORGAN    CLOUDY    61  41  48 NE8       29.87R
$$

COZ086-089-092>099-240300-
...SOUTHEAST COLORADO...

CITY           SKY/WX    TMP DP  RH WIND       PRES   REMARKS
PUEBLO         FAIR      75  39  27 E16       29.76R
LA JUNTA       FAIR      75  46  35 E10       29.74S
LAMAR          FAIR      74  53  48 E14       29.72R
SPRINGFIELD      N/A     68  44  42 SE10      29.75R
$$




USA.gov is the U.S. government's official web portal to all federal, state and local government web resources and services.